Date,TemperatureHighF,TemperatureAvgF,TemperatureLowF,DewpointHighF,DewpointAvgF,DewpointLowF,HumidityHigh,HumidityAvg,HumidityLow,PressureMaxIn,PressureMinIn,WindSpeedMaxMPH,WindSpeedAvgMPH,GustSpeedMaxMPH,PrecipitationSumIn
2014-5-11,61.5,61.4,61.3,59.8,59.7,59.6,94,94,94,29.76,29.71,2,2,6,0.71
2014-5-12,70.7,61.0,49.3,67.1,59.1,45.8,98,93,82,29.94,29.61,9,3,17,1.63
2014-5-13,49.6,47.9,46.3,45.9,43.1,40.8,88,84,77,30.14,29.92,6,4,17,0.00
2014-6-19,71.6,68.1,66.2,67.6,66.6,65.6,98,95,87,29.95,29.90,3,1,14,0.63
2014-6-20,87.8,80.6,73.4,74.9,69.8,63.3,98,74,47,29.98,29.89,3,2,9,0.02
2014-6-21,86.8,78.1,65.8,70.5,67.6,64.0,95,71,56,29.92,29.80,3,0,9,0.09
2014-6-22,78.6,71.1,67.3,71.2,67.5,65.5,95,89,76,29.85,29.75,5,1,13,0.03
2014-6-23,80.2,69.7,64.1,70.3,66.7,63.1,98,91,69,29.87,29.78,3,0,6,0.00
2014-6-24,64.3,63.6,63.2,61.6,61.3,61.1,93,92,91,29.91,29.90,2,1,3,0.00
2014-6-25,87.8,79.3,62.2,66.6,62.8,58.8,90,59,43,29.99,29.91,4,1,9,0.00
2014-6-26,75.5,69.9,66.4,71.1,66.6,63.0,96,89,79,29.97,29.82,4,0,7,0.27
2014-6-27,81.3,72.9,66.3,75.7,70.0,65.4,98,91,82,29.88,29.72,4,1,11,0.56
2014-6-28,85.0,74.0,63.2,75.5,70.2,62.1,98,89,71,29.87,29.68,9,2,18,1.07
2014-6-29,83.5,71.6,61.8,77.1,69.5,61.2,99,93,79,29.89,29.72,6,2,10,0.01
2014-6-30,79.3,69.6,63.9,76.4,68.6,63.4,100,97,82,29.78,29.54,10,1,21,1.34
2014-7-1,76.7,68.1,61.8,65.1,60.6,55.5,100,78,59,29.90,29.69,10,5,23,0.00
2014-7-2,68.1,59.9,55.7,58.2,54.4,51.4,95,82,69,30.10,29.90,5,2,14,0.00
2014-7-3,76.1,65.0,52.5,58.2,54.5,51.6,98,72,47,30.20,30.10,3,1,8,0.00
2014-7-4,79.7,69.0,55.5,63.7,58.9,52.5,96,72,51,30.28,30.15,2,1,5,0.00
2014-7-5,75.2,68.1,61.7,71.4,64.7,59.1,99,89,74,30.17,29.93,4,1,7,1.71
2014-7-6,86.9,77.5,67.5,79.3,72.9,66.3,98,86,74,29.93,29.69,5,2,11,0.00
2014-7-7,87.3,77.3,66.4,74.2,69.3,64.3,97,78,54,29.80,29.65,7,1,9,0.00
2014-7-8,79.2,72.5,65.0,65.2,61.7,58.8,86,70,52,29.90,29.70,8,3,14,0.00
2014-7-9,68.5,65.5,61.4,61.2,60.3,58.1,90,84,77,29.94,29.90,1,0,4,0.00
2014-7-12,82.2,73.6,67.7,75.8,69.9,65.9,94,88,80,29.95,29.85,4,1,9,0.05
2014-7-13,84.9,74.1,65.4,71.9,67.2,63.6,99,81,56,29.99,29.89,4,1,9,0.00
2014-7-14,74.5,68.3,58.5,66.9,56.8,48.2,93,69,44,30.04,29.88,7,2,17,0.00
2014-7-15,72.2,61.9,53.2,55.1,51.9,50.3,90,71,48,30.10,30.02,5,2,13,0.00
2014-7-16,62.0,58.4,56.6,55.3,54.4,52.6,93,87,76,30.06,30.02,0,0,10,0.00
2014-7-17,59.7,56.6,54.5,55.9,54.6,53.3,97,93,84,30.07,30.02,0,0,0,0.00
2014-7-18,79.2,73.7,66.1,63.8,61.9,59.5,85,67,53,30.08,29.98,3,1,6,0.00
2014-7-19,80.4,71.8,63.3,65.7,62.5,59.2,89,74,56,30.02,29.91,4,2,10,0.00
2014-7-20,82.7,76.9,63.5,69.8,67.3,61.1,92,73,62,29.96,29.85,5,3,10,0.00
2014-7-21,73.8,70.3,69.0,69.0,66.5,65.7,90,88,84,29.91,29.89,2,1,4,0.00
2014-7-22,88.8,82.9,73.0,80.3,74.8,66.8,91,77,66,30.07,29.87,7,2,11,0.00
2014-7-23,81.2,78.4,71.1,67.0,61.5,60.3,82,57,51,30.12,30.07,2,0,7,0.00
2014-7-24,76.3,71.1,67.0,65.3,63.0,61.2,84,76,61,30.10,29.83,6,2,9,0.00
2014-7-25,81.9,70.4,61.9,73.5,65.5,59.4,93,85,74,29.96,29.73,7,2,12,0.09
2014-7-26,82.7,73.3,67.2,75.2,70.4,66.3,97,91,77,29.83,29.73,3,0,9,0.00
2014-7-27,76.5,71.6,66.3,71.3,63.0,58.3,98,76,57,30.06,29.82,8,3,18,0.00
2014-7-28,66.3,62.1,59.2,59.8,59.0,57.8,96,90,79,30.13,30.05,3,1,18,0.00
2014-7-29,72.9,61.3,56.2,59.7,57.5,55.1,97,88,60,30.14,30.04,0,0,4,0.00
2014-7-30,79.3,69.0,56.8,61.3,58.1,55.7,96,71,46,30.10,30.03,3,1,7,0.00
2014-7-31,80.5,72.5,58.6,64.5,61.3,57.8,98,70,48,30.08,30.00,6,1,10,0.00
2014-8-1,82.7,71.8,60.0,66.8,62.4,58.3,97,74,50,30.08,30.02,2,0,4,0.00
2014-8-2,85.0,73.5,60.7,68.0,64.0,59.6,97,74,49,30.14,30.04,2,0,5,0.00
2014-8-3,85.6,75.0,66.1,69.6,66.0,62.3,90,75,53,30.11,29.99,2,0,6,0.00
2014-8-4,73.5,67.8,65.2,68.0,65.4,63.7,96,92,83,30.03,30.01,0,0,3,0.00
2014-8-5,76.6,71.6,68.5,70.3,68.2,66.7,95,89,81,30.02,29.98,0,0,0,0.00
2014-8-6,68.3,67.5,67.1,66.9,66.3,65.9,97,96,95,29.99,29.96,1,0,2,1.44
2014-8-7,69.2,67.5,66.3,67.8,66.3,62.8,98,96,93,29.98,29.92,4,0,4,0.11
2014-8-8,77.4,67.7,63.3,69.6,65.0,62.7,98,92,74,30.01,29.95,3,0,4,0.00
2014-8-9,76.7,67.9,64.5,69.5,64.8,62.2,96,90,76,30.02,29.99,0,0,2,0.00
2014-8-13,80.3,79.6,79.1,62.5,60.6,59.3,56,52,50,30.05,30.04,2,1,6,0.00
2014-8-15,69.6,68.1,66.6,68.1,66.7,65.4,96,95,94,29.89,29.85,2,0,4,0.28
2014-8-16,77.1,70.0,65.9,70.7,67.4,65.0,98,92,78,29.89,29.80,1,0,4,0.05
2014-8-17,83.3,72.6,63.0,73.5,68.5,62.4,99,88,67,29.96,29.85,2,0,3,0.01
2014-8-18,85.4,75.5,66.2,75.9,70.9,65.3,97,86,72,29.92,29.69,4,2,6,0.00
2014-8-19,84.5,75.4,67.8,71.7,68.0,65.7,97,80,56,29.79,29.68,5,1,10,0.00
2014-8-20,81.6,73.0,65.9,75.9,69.9,65.0,98,90,72,29.91,29.76,7,1,14,0.71
2014-8-21,87.1,78.9,73.0,78.0,74.6,70.8,97,87,73,29.87,29.76,4,1,6,0.13
2014-8-22,87.9,79.3,70.6,80.6,75.4,69.2,96,88,76,29.91,29.76,12,0,17,0.07
2014-8-23,85.3,77.2,70.8,79.1,74.6,70.2,99,92,78,29.94,29.80,5,1,7,0.68
2014-8-24,90.4,81.0,72.1,78.8,74.7,71.5,98,83,61,29.84,29.77,4,1,6,0.00
2014-8-25,87.6,80.0,72.6,78.3,74.0,67.1,95,82,70,29.98,29.81,3,1,5,0.03
2014-8-26,78.1,71.3,64.1,67.9,65.5,62.9,97,82,68,30.13,29.97,9,0,11,0.23
2014-8-27,75.4,71.2,65.6,69.6,67.1,62.6,94,87,79,30.14,30.02,1,0,2,0.00
2014-8-28,78.1,69.8,64.9,74.3,68.1,64.0,98,94,86,30.05,29.84,7,0,8,2.22
2014-8-29,83.9,71.6,65.4,77.2,69.3,65.1,99,93,69,29.94,29.72,6,1,11,1.13
2014-8-30,80.4,71.2,64.8,71.3,67.1,63.2,98,88,69,29.86,29.74,5,2,11,0.03
2014-8-31,86.6,74.5,64.2,76.1,69.7,63.6,98,86,67,29.85,29.59,12,2,18,1.89
2014-9-1,78.1,70.4,63.9,69.3,65.3,63.3,99,85,63,29.85,29.52,9,2,14,0.01
2014-9-2,78.8,68.5,59.4,64.4,61.5,58.2,98,80,55,29.94,29.83,3,1,10,0.00
2014-9-3,83.0,72.4,61.4,73.6,67.3,59.4,96,85,70,29.94,29.74,5,2,12,0.00
2014-9-4,89.9,81.7,73.3,77.9,74.0,69.9,93,78,62,29.84,29.71,6,3,9,0.00
2014-9-5,77.2,64.0,55.1,73.5,59.7,53.2,94,86,77,30.20,29.84,5,2,9,0.09
2014-9-6,73.3,61.0,49.4,57.2,53.1,48.0,96,77,50,30.27,30.18,2,0,3,0.01
2014-9-7,73.8,62.8,51.2,60.0,54.7,50.5,99,77,49,30.21,30.05,3,1,7,0.00
2014-9-8,73.3,63.9,54.8,66.2,59.4,51.5,94,85,71,30.06,29.79,3,1,5,0.25
2014-9-9,72.6,69.3,64.8,69.0,66.8,63.4,97,92,87,29.87,29.74,3,1,5,0.49
2014-9-12,52.6,47.3,41.6,45.2,43.3,40.1,96,86,73,30.41,30.38,3,1,10,0.30
2014-9-13,60.7,49.1,37.2,48.0,42.1,36.7,99,79,52,30.42,30.26,3,1,10,0.01
2014-9-14,68.2,57.7,44.8,56.3,50.0,42.9,94,77,56,30.28,30.09,4,1,6,0.00
2014-9-15,60.8,56.6,47.0,59.1,52.1,45.1,97,85,70,30.24,30.03,5,1,9,0.03
2014-9-16,66.8,54.1,40.7,52.9,47.7,40.1,99,81,56,30.26,30.04,2,0,4,0.00
2014-9-17,76.5,62.2,51.4,61.7,55.6,49.4,93,81,57,30.05,29.89,0,0,0,0.00
2014-9-18,71.2,61.0,52.4,59.8,55.5,51.9,98,84,56,30.08,29.98,3,0,4,0.00
2014-9-19,77.4,66.4,54.8,68.5,61.5,53.0,94,85,72,30.02,29.79,6,3,10,0.00
2014-9-20,82.3,72.3,63.0,71.2,64.7,53.6,97,79,50,29.95,29.78,6,3,11,0.13
2014-9-21,68.0,60.4,53.6,54.2,51.2,49.1,93,73,54,30.22,29.94,6,2,10,0.00
2014-9-22,72.2,58.5,47.2,55.8,51.3,45.9,97,79,52,30.32,30.19,3,0,6,0.00
2014-9-23,70.2,60.7,51.2,57.6,53.5,49.0,94,78,61,30.26,30.13,3,1,5,0.00
2014-9-24,63.4,59.9,56.0,59.6,55.9,53.2,96,87,77,30.23,30.15,4,0,4,0.37
2014-9-25,74.9,66.2,59.1,64.5,59.5,55.1,89,79,67,30.21,30.11,2,0,4,0.00
2014-9-26,80.5,69.4,59.0,65.2,60.9,56.5,92,76,51,30.15,30.07,4,1,6,0.00
2014-9-27,80.5,69.6,61.7,68.3,63.0,59.1,97,81,59,30.15,30.03,2,0,3,0.20
2014-9-28,80.1,69.2,59.9,66.1,62.1,58.8,96,80,56,30.13,30.02,0,0,0,0.00
2014-9-29,79.7,67.5,56.5,67.4,61.1,55.6,98,81,55,30.04,29.91,4,1,7,0.00
2014-9-30,68.5,60.6,55.2,61.3,57.2,53.8,96,89,76,29.97,29.81,2,1,5,0.00
2014-10-1,70.3,62.5,55.9,65.9,60.4,55.1,98,93,84,29.83,29.71,3,1,6,0.96
2014-10-2,66.0,61.9,54.2,65.2,61.0,51.9,99,97,91,29.78,29.64,6,1,16,0.07
2014-10-3,54.0,47.0,39.7,51.7,37.8,24.4,96,71,52,30.02,29.73,12,6,16,0.01
2014-10-4,51.3,42.0,34.6,34.8,30.1,24.5,80,63,45,29.97,29.81,9,4,14,0.00
2014-10-5,64.6,51.7,40.2,46.6,40.6,34.2,89,68,42,29.80,29.63,10,2,14,0.00
2014-10-6,63.9,55.0,46.0,49.0,43.8,35.8,92,67,44,29.70,29.61,8,4,15,0.00
2014-10-7,66.8,59.0,52.5,49.7,45.1,39.4,81,62,37,29.94,29.61,9,4,20,0.00
2014-10-8,69.0,54.9,41.2,51.0,41.7,35.8,94,65,32,30.11,29.94,5,1,9,0.05
2014-10-9,63.4,54.0,49.1,50.9,45.4,35.8,97,75,50,30.16,30.04,2,0,5,0.46
2014-10-10,55.0,47.3,39.4,40.3,37.3,35.4,88,69,51,30.24,30.15,4,1,8,0.00
2014-10-11,59.9,47.4,33.6,42.6,38.0,31.6,95,72,46,30.28,30.05,2,0,8,0.00
2014-10-12,54.7,48.2,39.8,51.2,45.3,37.3,98,90,77,30.05,29.78,2,1,4,0.01
2014-10-13,53.5,52.3,51.0,53.1,51.9,50.7,99,98,98,29.81,29.54,7,2,15,1.32
2014-10-14,60.1,53.3,49.7,51.0,47.3,41.6,99,81,60,29.89,29.54,7,4,13,0.19
2014-10-15,67.7,55.0,45.0,44.0,40.2,36.3,79,59,34,29.97,29.87,6,2,13,0.00
2014-10-16,73.8,56.3,39.7,54.1,44.8,37.5,95,68,46,29.88,29.65,8,2,11,0.00
2014-10-17,59.5,54.7,49.1,47.3,44.5,42.4,78,69,55,30.08,29.72,7,4,12,0.00
2014-10-18,56.7,47.3,40.2,44.5,41.4,37.9,92,80,61,30.26,30.08,5,2,9,0.00
2014-10-19,65.6,51.4,38.1,50.9,44.8,36.8,96,80,56,30.18,29.90,5,2,9,0.00
2014-10-20,69.7,56.8,44.8,49.7,45.2,41.6,89,68,39,30.04,29.90,5,1,8,0.00
2014-10-21,63.9,52.1,39.0,48.8,43.8,37.4,96,75,53,30.18,30.03,3,1,5,0.00
2014-10-22,54.1,45.4,41.7,46.0,40.7,39.0,91,84,74,30.25,30.17,3,2,6,0.00
2014-10-28,79.9,78.6,77.4,70.9,70.4,70.0,79,76,74,31.08,31.07,1,0,4,0.02